YACHTS Weather Reports


time (UTC)temp
C
wind
direction
speed
KPH
gust
KPH
rain 1hr
cm
rain 24hr
cm
rain mn
cm
humidity
%
barometer
mb
20260504234311 12 264 4.8 29.0 0.00 0.00 0.00 80 1013.8
20260504232219 13 268 14.5 27.4 0.00 0.00 0.00 80 1013.8
20260504231706 13 245 9.7 27.4 0.00 0.00 0.00 80 1013.8
20260504231154 13 275 14.5 27.4 0.00 0.00 0.00 80 1013.8
20260504224548 13 254 11.3 22.5 0.00 0.00 0.00 82 1014.1
20260504224035 13 225 11.3 22.5 0.00 0.00 0.00 83 1014.2
20260504223522 13 252 8.0 20.9 0.00 0.00 0.00 83 1014.2
20260504221943 13 263 8.0 29.0 0.00 0.00 0.00 84 1014.4
20260504221430 13 260 8.0 29.0 0.00 0.00 0.00 84 1014.5
20260504220404 13 264 9.7 24.1 0.00 0.00 0.00 85 1014.6
20260504215851 12 294 3.2 24.1 0.00 0.00 0.00 85 1014.6
20260504214825 13 263 8.0 14.5 0.00 0.00 0.00 86 1014.7
20260504213759 13 285 11.3 27.4 0.00 0.00 0.00 86 1014.6
20260504212220 12 215 9.7 25.7 0.00 0.00 0.00 86 1014.7
20260504211154 12 259 12.9 25.7 0.00 0.00 0.00 86 1014.8
20260504210641 12 264 12.9 22.5 0.00 0.00 0.00 86 1014.8
20260504210128 12 229 12.9 25.7 0.00 0.00 0.00 85 1014.8
20260504205615 12 296 11.3 25.7 0.00 0.00 0.00 86 1014.8
20260504205102 13 263 8.0 25.7 0.00 0.00 0.00 87 1014.7
20260504204549 12 243 8.0 20.9 0.00 0.00 0.00 87 1014.8
20260504204036 12 263 11.3 20.9 0.00 0.00 0.00 86 1014.7
20260504203523 12 121 6.4 20.9 0.00 0.00 0.00 88 1014.8
20260504202457 12 260 11.3 24.1 0.00 0.00 0.00 89 1014.9
20260504201944 12 294 9.7 24.1 0.00 0.00 0.00 89 1014.8
20260504201431 12 284 8.0 24.1 0.00 0.00 0.00 89 1014.9
20260504200918 12 214 6.4 16.1 0.00 0.00 0.00 89 1014.9
20260504200405 12 329 6.4 19.3 0.00 0.00 0.00 89 1014.9
20260504195852 12 302 8.0 19.3 0.00 0.00 0.00 89 1014.9
20260504194826 11 0 9.7 24.1 0.00 0.00 0.00 89 1014.8
20260504194313 12 267 8.0 24.1 0.00 0.00 0.00 89 1014.9
20260504193800 12 257 8.0 24.1 0.00 0.00 0.00 89 1014.8
20260504193247 12 282 6.4 19.3 0.00 0.00 0.00 89 1014.7
20260504192734 12 278 4.8 19.3 0.00 0.00 0.00 89 1014.7
20260504192221 12 242 0.0 19.3 0.00 0.00 0.00 89 1014.6
20260504191708 12 270 4.8 16.1 0.00 0.00 0.00 89 1014.6
20260504191155 12 175 6.4 16.1 0.00 0.00 0.00 90 1014.6
20260504190642 11 326 6.4 16.1 0.00 0.00 0.00 90 1014.6
20260504190129 12 289 6.4 16.1 0.00 0.00 0.00 90 1014.7
20260504185616 11 252 8.0 12.9 0.00 0.00 0.00 90 1014.7
20260504185103 11 273 12.9 22.5 0.00 0.00 0.00 90 1014.8
20260504184549 11 266 9.7 22.5 0.00 0.00 0.00 90 1014.9
20260504184036 11 257 11.3 22.5 0.00 0.00 0.00 89 1014.8
20260504183524 11 252 6.4 19.3 0.00 0.00 0.00 90 1014.9
20260504182457 11 261 6.4 11.3 0.00 0.00 0.00 90 1014.7
20260504181945 11 267 8.0 16.1 0.00 0.00 0.00 90 1014.7
20260504175852 11 197 4.8 17.7 0.00 0.00 0.00 90 1014.7
20260504175339 11 305 8.0 17.7 0.00 0.00 0.00 90 1014.7
20260504174826 11 267 1.6 20.9 0.00 0.00 0.00 90 1014.7
20260504174313 11 0 6.4 20.9 0.00 0.00 0.00 90 1014.6
20260504173800 11 287 8.0 20.9 0.00 0.00 0.00 90 1014.7
20260504173247 11 299 1.6 16.1 0.00 0.00 0.00 90 1014.7
20260504172734 11 267 6.4 16.1 0.00 0.00 0.00 90 1014.6
20260504172221 11 259 8.0 17.7 0.00 0.00 0.00 90 1014.6
20260504171708 11 212 6.4 17.7 0.00 0.00 0.00 90 1014.6
20260504170643 11 268 8.0 14.5 0.00 0.00 0.00 90 1014.6
20260504170129 11 266 1.6 11.3 0.00 0.00 0.00 91 1014.5
20260504160407 11 231 1.6 24.1 0.00 0.00 0.00 91 1014.2
20260504150643 11 226 0.0 16.1 0.00 0.00 0.00 92 1014.1
20260504150130 11 183 1.6 16.1 0.00 0.00 0.00 92 1014.1
20260504140920 10 200 4.8 16.1 0.00 0.00 0.00 91 1013.7
20260504140408 10 281 0.0 8.0 0.00 0.00 0.00 91 1013.6
20260504130644 10 0 0.0 12.9 0.00 0.00 0.00 91 1013.1
20260504130131 10 0 0.0 12.9 0.00 0.00 0.00 91 1013.0
20260504110646 10 207 4.8 16.1 0.00 0.00 0.00 92 1012.9
20260504100409 10 161 0.0 11.3 0.00 0.00 0.00 92 1012.9
20260504090133 10 0 0.0 12.9 0.00 0.00 0.00 92 1012.7
20260504081949 10 298 1.6 11.3 0.00 0.00 0.00 92 1012.7
20260504081436 10 254 3.2 9.7 0.00 0.00 0.00 92 1012.7
20260504080923 10 225 0.0 12.9 0.00 0.00 0.00 93 1012.7
20260504080410 10 145 3.2 12.9 0.00 0.00 0.00 92 1012.6
20260504070134 11 196 0.0 16.1 0.00 0.00 0.00 92 1012.3
20260504050648 10 179 0.0 19.3 0.00 0.00 0.00 93 1011.9
20260504050135 10 271 0.0 19.3 0.00 0.00 0.00 93 1011.8
20260504045621 10 256 0.0 19.3 0.00 0.00 0.00 93 1011.9
20260504045109 10 235 4.8 17.7 0.00 0.00 0.00 93 1011.9
20260504044556 10 231 3.2 16.1 0.00 0.00 0.00 93 1011.8
20260504044042 10 256 3.2 27.4 0.00 0.00 0.00 93 1011.8
20260504043529 10 264 9.7 27.4 0.00 0.00 0.00 93 1011.7
20260504043016 10 250 1.6 27.4 0.00 0.00 0.00 93 1011.7
20260504042503 11 226 1.6 24.1 0.00 0.00 0.00 93 1011.7
20260504041951 11 261 6.4 24.1 0.00 0.00 0.00 92 1011.5
20260504041437 11 198 0.0 20.9 0.00 0.00 0.00 92 1011.5
20260504040924 11 266 1.6 20.9 0.00 0.00 0.00 92 1011.4
20260504040411 11 242 8.0 20.9 0.00 0.00 0.00 92 1011.3
20260504035858 11 263 8.0 17.7 0.00 0.00 0.00 92 1011.3
20260504035345 11 0 8.0 27.4 0.00 0.00 0.00 92 1011.1
20260504034833 10 246 8.0 27.4 0.00 0.00 0.00 92 1011.0
20260504034319 10 0 1.6 27.4 0.00 0.00 0.00 92 1011.1
20260504033806 10 0 3.2 22.5 0.00 0.00 0.00 92 1010.9
20260504033253 10 239 6.4 22.5 0.00 0.00 0.00 92 1010.8
20260504032740 10 214 6.4 20.9 0.00 0.00 0.00 92 1010.7
20260504032228 10 288 3.2 20.9 0.00 0.00 0.00 92 1010.5
20260504031715 10 273 6.4 20.9 0.00 0.00 0.00 92 1010.6
20260504031201 10 257 3.2 24.1 0.00 0.00 0.00 92 1010.6
20260504030649 10 270 8.0 24.1 0.00 0.00 0.00 92 1010.5
20260504030135 10 260 11.3 24.1 0.00 0.00 0.00 92 1010.6
20260504025626 10 278 1.6 22.5 0.00 0.00 0.00 92 1010.5
20260504025109 10 284 9.7 22.5 0.00 0.00 0.00 92 1010.4
20260504024557 10 302 4.8 20.9 0.00 0.00 0.00 92 1010.5
20260504024043 10 302 8.0 20.9 0.00 0.00 0.00 92 1010.4
20260504023531 10 263 3.2 20.9 0.00 0.00 0.00 92 1010.4
20260504023017 10 245 11.3 17.7 0.00 0.00 0.00 92 1010.4
20260504022504 10 256 4.8 20.9 0.00 0.00 0.00 92 1010.3
20260504021951 10 270 8.0 20.9 0.00 0.00 0.00 91 1010.1
20260504021438 10 186 6.4 20.9 0.00 0.00 0.00 91 1010.1
20260504020412 10 267 11.3 17.7 0.00 0.00 0.00 91 1010.1
20260504015859 11 242 9.7 22.5 0.00 0.00 0.00 91 1010.0
20260504015346 11 270 8.0 22.5 0.00 0.00 0.00 91 1009.9
20260504014833 11 280 11.3 22.5 0.00 0.00 0.00 91 1009.8
20260504014320 11 275 11.3 17.7 0.00 0.00 0.00 91 1009.8
20260504013807 11 249 1.6 6.4 0.00 0.00 0.00 91 1009.7
20260504013254 11 211 4.8 20.9 0.00 0.00 0.00 91 1009.8
20260504012741 11 273 6.4 20.9 0.00 0.00 0.00 91 1009.7
20260504012228 10 252 6.4 20.9 0.00 0.00 0.00 91 1009.7
20260504011715 10 252 0.0 12.9 0.00 0.00 0.00 91 1009.6
20260504010136 11 267 11.3 25.7 0.00 0.00 0.00 90 1009.9
20260504005110 11 277 4.8 12.9 0.00 0.00 0.00 90 1010.0
20260504004558 11 263 4.8 17.7 0.00 0.00 0.00 90 1009.9
20260504004044 11 319 1.6 17.7 0.00 0.00 0.00 90 1009.9
20260504003531 11 288 4.8 17.7 0.00 0.00 0.00 90 1010.0
20260504003018 11 246 9.7 14.5 0.00 0.00 0.00 89 1009.9
20260504001952 11 291 3.2 17.7 0.00 0.00 0.00 89 1009.7
20260504001439 11 305 4.8 17.7 0.00 0.00 0.00 89 1009.7
20260504000413 11 330 3.2 17.7 0.00 0.00 0.00 89 1009.6
20260503235900 11 228 6.4 17.7 0.00 0.00 0.00 88 1009.6
20260503235347 11 324 6.4 17.7 0.00 0.00 0.00 88 1009.6